No particular awareness of the weather is required.    There are no Weather-warnings


Meteo18 Weather Cam more information Meteo18 Weather Cam


Thunder radar more information blitzortung!


Rain radar more information rain snow radar


Visit our other weather sites:

Template documentation
and downloads

And another site



Weather Underground History page Text

Daily Summary for January 12, 2017 Units:  English    Metric   Both
« Previous Day
Next Day »
Daily Weekly Monthly Yearly Custom
  High: Low: Average:
Temperature: 50 °F 40.5 °F 43.9 °F
Dew Point: 46.4 °F 34.9 °F 41.4 °F
Humidity: 97 % 72 % 91 %
Wind Speed: 32 mph 0 mph 7.1 mph
Wind Gust: 45 mph - -
Wind:- - SW
Pressure: 30.2 in 29.5 in -
Precipitation: 0.21 in    
Historical Graphs
 
 
Tabular Data for January 12, 2017
Time Temperature Dew Point Pressure Wind Wind Speed Wind Gust Humidity Rainfall Rate (Hourly)
00:02 45.9 °F 41.5 °F 30.2 in WNW 5 mph 6 mph 85 % 0 in
00:07 45.9 °F 41.4 °F 30.2 in WNW 5 mph 9 mph 84 % 0 in
00:12 45.9 °F 41.4 °F 30.2 in West 3 mph 9 mph 84 % 0 in
00:17 45.9 °F 41.4 °F 30.2 in West 3 mph 9 mph 84 % 0 in
00:22 45.9 °F 41.4 °F 30.2 in West 6 mph 8 mph 84 % 0 in
00:27 45.9 °F 41.4 °F 30.2 in WSW 2 mph 6 mph 84 % 0 in
00:32 45.7 °F 41.2 °F 30.2 in WSW 4 mph 7 mph 84 % 0 in
00:37 45.7 °F 41.4 °F 30.2 in WSW 4 mph 7 mph 85 % 0 in
00:42 45.7 °F 41.4 °F 30.2 in WSW 3 mph 6 mph 85 % 0 in
00:47 45.5 °F 41.5 °F 30.2 in SW 3 mph 6 mph 86 % 0 in
00:52 45.5 °F 41.5 °F 30.2 in WSW 7 mph 7 mph 86 % 0 in
01:02 45.5 °F 41.5 °F 30.2 in SW 2 mph 7 mph 86 % 0 in
01:12 45.3 °F 41.7 °F 30.2 in SW 2 mph 7 mph 87 % 0 in
01:17 45.1 °F 41.5 °F 30.2 in West 2 mph 7 mph 87 % 0 in
01:22 45.1 °F 41.7 °F 30.2 in WSW 5 mph 7 mph 88 % 0 in
01:27 45.1 °F 41.7 °F 30.2 in WSW 6 mph 7 mph 88 % 0 in
01:32 45 °F 41.5 °F 30.2 in SW 3 mph 7 mph 88 % 0 in
01:37 45 °F 41.5 °F 30.2 in WSW 5 mph 7 mph 88 % 0 in
01:42 44.8 °F 41.7 °F 30.2 in West 3 mph 7 mph 89 % 0 in
01:52 44.8 °F 41.7 °F 30.2 in WSW 2 mph 7 mph 89 % 0 in
01:57 44.6 °F 41.5 °F 30.2 in West 3 mph 5 mph 89 % 0 in
02:02 44.4 °F 41.7 °F 30.2 in WNW 4 mph 5 mph 90 % 0 in
02:12 44.4 °F 41.7 °F 30.2 in WSW 5 mph 6 mph 90 % 0 in
02:17 44.4 °F 41.9 °F 30.2 in West 3 mph 6 mph 91 % 0 in
02:22 44.2 °F 41.7 °F 30.2 in West 2 mph 6 mph 91 % 0 in
02:27 44.2 °F 42.1 °F 30.2 in West 4 mph 6 mph 92 % 0 in
02:32 44.2 °F 42.1 °F 30.2 in West 3 mph 8 mph 92 % 0 in
02:37 44.2 °F 42.1 °F 30.2 in West 3 mph 8 mph 92 % 0 in
02:42 44.2 °F 42.1 °F 30.2 in West 4 mph 8 mph 92 % 0 in
02:52 44.2 °F 42.1 °F 30.2 in WSW 3 mph 7 mph 92 % 0 in
02:57 44.2 °F 42.1 °F 30.2 in West 2 mph 8 mph 92 % 0 in
03:02 44.2 °F 42.1 °F 30.2 in West 3 mph 8 mph 92 % 0 in
03:07 44.2 °F 41.7 °F 30.2 in WSW 3 mph 6 mph 91 % 0 in
03:12 44.2 °F 41.7 °F 30.2 in West 4 mph 6 mph 91 % 0 in
03:17 44.2 °F 41.7 °F 30.2 in WSW 4 mph 6 mph 91 % 0 in
03:22 44.2 °F 41.7 °F 30.2 in West 4 mph 6 mph 91 % 0 in
03:32 44.1 °F 41.5 °F 30.2 in WSW 4 mph 8 mph 91 % 0 in
03:37 44.1 °F 41.5 °F 30.2 in West 4 mph 6 mph 91 % 0 in
03:42 44.1 °F 41.5 °F 30.2 in WSW 4 mph 6 mph 91 % 0 in
03:47 43.9 °F 41.4 °F 30.2 in WSW 2 mph 6 mph 91 % 0 in
03:52 43.9 °F 41.4 °F 30.2 in WNW 1 mph 6 mph 91 % 0 in
03:57 43.9 °F 41.7 °F 30.2 in WSW 2 mph 5 mph 92 % 0 in
04:02 43.9 °F 41.4 °F 30.2 in SW 2 mph 5 mph 91 % 0 in
04:12 43.7 °F 41.5 °F 30.2 in WSW 3 mph 5 mph 92 % 0 in
04:17 43.5 °F 41.4 °F 30.2 in WSW 3 mph 6 mph 92 % 0 in
04:22 43.3 °F 41.2 °F 30.2 in SW 2 mph 6 mph 92 % 0 in
04:27 43.3 °F 41.2 °F 30.2 in SW 2 mph 6 mph 92 % 0 in
04:32 43.2 °F 41 °F 30.2 in SW 1 mph 6 mph 92 % 0 in
04:37 43.2 °F 41.4 °F 30.2 in SW 1 mph 4 mph 93 % 0 in
04:42 43.2 °F 41.4 °F 30.2 in WSW 1 mph 4 mph 93 % 0 in
04:47 43 °F 41.2 °F 30.2 in SW 2 mph 3 mph 93 % 0 in
04:52 43 °F 41.2 °F 30.1 in SW 2 mph 3 mph 93 % 0 in
04:57 42.8 °F 41 °F 30.1 in Calm   3 mph 93 % 0 in
05:02 42.6 °F 40.8 °F 30.1 in West 2 mph 3 mph 93 % 0 in
05:07 42.6 °F 40.8 °F 30.1 in WSW 2 mph 4 mph 93 % 0 in
05:12 42.6 °F 40.8 °F 30.1 in West 1 mph 4 mph 93 % 0 in
05:17 42.6 °F 40.8 °F 30.2 in WSW 1 mph 4 mph 93 % 0 in
05:22 42.6 °F 40.8 °F 30.1 in West 2 mph 3 mph 93 % 0 in
05:27 42.4 °F 40.6 °F 30.1 in West 1 mph 4 mph 93 % 0 in
05:32 42.4 °F 40.6 °F 30.2 in WSW 2 mph 4 mph 93 % 0 in
05:37 42.4 °F 40.6 °F 30.2 in West 1 mph 4 mph 93 % 0 in
05:42 42.4 °F 40.6 °F 30.2 in West 1 mph 3 mph 93 % 0 in
05:52 42.4 °F 40.6 °F 30.1 in WNW 2 mph 4 mph 93 % 0 in
05:57 42.4 °F 40.6 °F 30.1 in WNW 1 mph 3 mph 93 % 0 in
06:02 42.4 °F 40.6 °F 30.1 in Calm   2 mph 93 % 0 in
06:12 42.4 °F 40.6 °F 30.1 in Calm   2 mph 93 % 0 in
06:17 42.4 °F 40.6 °F 30.1 in Calm   2 mph 93 % 0 in
06:22 42.4 °F 40.6 °F 30.1 in SW 1 mph 1 mph 93 % 0 in
06:27 42.1 °F 40.3 °F 30.1 in SSW 1 mph 1 mph 93 % 0 in
06:32 41.9 °F 40.3 °F 30.1 in SW 1 mph 2 mph 94 % 0 in
06:37 41.9 °F 40.3 °F 30.1 in SSW 1 mph 2 mph 94 % 0 in
06:42 41.9 °F 40.3 °F 30.1 in SW 1 mph 3 mph 94 % 0 in
06:47 41.7 °F 40.1 °F 30.1 in SSW 1 mph 3 mph 94 % 0 in
06:52 41.5 °F 39.9 °F 30.1 in SW 1 mph 2 mph 94 % 0 in
06:57 41.5 °F 40.3 °F 30.1 in Calm   2 mph 95 % 0 in
07:02 41.5 °F 40.3 °F 30.1 in Calm   3 mph 95 % 0 in
07:07 41.5 °F 40.3 °F 30.1 in Calm   3 mph 95 % 0 in
07:12 41.7 °F 40.5 °F 30.1 in Calm   3 mph 95 % 0 in
07:17 41.7 °F 40.5 °F 30.1 in Calm   1 mph 95 % 0 in
07:22 41.7 °F 40.1 °F 30.1 in Calm   1 mph 94 % 0 in
07:27 41.5 °F 39.9 °F 30.1 in Calm   1 mph 94 % 0 in
07:32 41.4 °F 39.7 °F 30.1 in Calm   1 mph 94 % 0 in
07:37 41.2 °F 39.6 °F 30.1 in Calm     94 % 0 in
07:42 40.8 °F 39.6 °F 30.1 in Calm     95 % 0 in
07:47 40.8 °F 39.6 °F 30.1 in SSW 1 mph   95 % 0 in
07:52 40.6 °F 39.4 °F 30.1 in SSW 1 mph 1 mph 95 % 0 in
07:57 40.6 °F 39.6 °F 30.1 in SSW 1 mph 2 mph 96 % 0 in
08:02 40.5 °F 39.4 °F 30.1 in SW 3 mph 3 mph 96 % 0 in
08:07 40.6 °F 39.6 °F 30.1 in SW 3 mph 4 mph 96 % 0 in
08:12 40.8 °F 40.1 °F 30.1 in SW 3 mph 5 mph 97 % 0 in
08:17 41 °F 39.9 °F 30.1 in SW 2 mph 5 mph 96 % 0 in
08:22 41.2 °F 40.1 °F 30.1 in West 1 mph 6 mph 96 % 0 in
08:27 41.2 °F 40.1 °F 30.1 in SW 1 mph 6 mph 96 % 0 in
08:32 41.2 °F 40.1 °F 30.1 in SW 1 mph 6 mph 96 % 0 in
08:37 41.2 °F 40.1 °F 30.1 in SW 5 mph 6 mph 96 % 0 in
08:42 41.2 °F 40.1 °F 30.1 in SW 2 mph 5 mph 96 % 0 in
08:52 41.2 °F 40.1 °F 30.1 in West 3 mph 6 mph 96 % 0 in
08:57 41.2 °F 40.1 °F 30.1 in SW 4 mph 6 mph 96 % 0 in
09:02 41.2 °F 40.1 °F 30.1 in SW 5 mph 7 mph 96 % 0 in
09:07 41.2 °F 40.1 °F 30.1 in SW 5 mph 8 mph 96 % 0 in
09:12 41.2 °F 39.9 °F 30.1 in SW 6 mph 8 mph 95 % 0 in
09:17 41 °F 39.7 °F 30.1 in SW 4 mph 8 mph 95 % 0 in
09:22 41 °F 39.9 °F 30.1 in SW 4 mph 8 mph 96 % 0 in
09:27 40.8 °F 39.7 °F 30.1 in SW 3 mph 8 mph 96 % 0 in
09:32 40.8 °F 39.7 °F 30.1 in SSW 3 mph 7 mph 96 % 0 in
09:37 40.8 °F 39.7 °F 30.1 in WSW 2 mph 6 mph 96 % 0 in
09:42 40.8 °F 39.7 °F 30.1 in SW 4 mph 6 mph 96 % 0 in
09:47 41 °F 39.9 °F 30.1 in WSW 4 mph 6 mph 96 % 0 in
09:52 41.2 °F 40.1 °F 30.1 in WSW 6 mph 6 mph 96 % 0 in
09:57 41.2 °F 40.1 °F 30.1 in SW 2 mph 7 mph 96 % 0 in
10:02 41.2 °F 39.9 °F 30.1 in WSW 2 mph 7 mph 95 % 0 in
10:12 41.4 °F 40.1 °F 30.1 in SW 5 mph 8 mph 95 % 0 in
10:22 41.4 °F 40.3 °F 30.1 in SSW 2 mph 7 mph 96 % 0 in
10:27 41.4 °F 40.3 °F 30.1 in SW 5 mph 7 mph 96 % 0 in
10:32 41.4 °F 40.3 °F 30.1 in SW 4 mph 7 mph 96 % 0 in
10:37 41.4 °F 40.3 °F 30.1 in SW 6 mph 6 mph 96 % 0 in
10:42 41.5 °F 40.5 °F 30.1 in SW 4 mph 7 mph 96 % 0 in
10:47 41.7 °F 40.6 °F 30.1 in SW 4 mph 7 mph 96 % 0 in
10:52 41.7 °F 40.6 °F 30.1 in SW 4 mph 7 mph 96 % 0 in
10:57 42.1 °F 40.8 °F 30.1 in SW 4 mph 7 mph 95 % 0 in
11:02 42.1 °F 40.8 °F 30.1 in SW 3 mph 7 mph 95 % 0 in
11:12 42.4 °F 41.2 °F 30.1 in SSW 4 mph 6 mph 95 % 0 in
11:17 42.6 °F 41.4 °F 30.1 in SSW 2 mph 6 mph 95 % 0 in
11:27 43 °F 41.7 °F 30.1 in SW 3 mph 6 mph 95 % 0 in
11:32 43.2 °F 41.9 °F 30.1 in SSW 1 mph 5 mph 95 % 0 in
11:37 43.5 °F 42.3 °F 30.1 in SSW 2 mph 5 mph 95 % 0 in
11:42 43.7 °F 42.1 °F 30.1 in SW 3 mph 5 mph 94 % 0 in
11:47 43.9 °F 41.9 °F 30.1 in SSW 2 mph 5 mph 93 % 0 in
11:52 43.9 °F 41.9 °F 30.1 in SSW 1 mph 5 mph 93 % 0 in
11:57 44.2 °F 42.3 °F 30 in SSW 3 mph 6 mph 93 % 0 in
12:02 44.2 °F 42.1 °F 30 in South 3 mph 7 mph 92 % 0 in
12:07 44.4 °F 41.9 °F 30 in SSW 5 mph 7 mph 91 % 0 in
12:12 44.4 °F 41.9 °F 30 in SSW 4 mph 8 mph 91 % 0 in
12:17 44.6 °F 42.1 °F 30 in SSW 6 mph 8 mph 91 % 0 in
12:27 44.8 °F 42.3 °F 30 in SW 10 mph 10 mph 91 % 0 in
12:32 44.8 °F 42.3 °F 30 in SSW 5 mph 8 mph 91 % 0 in
12:37 44.8 °F 42.1 °F 30 in SW 8 mph 10 mph 90 % 0 in
12:42 44.8 °F 42.1 °F 30 in SSW 8 mph 12 mph 90 % 0 in
12:47 44.8 °F 42.1 °F 30 in SW 6 mph 12 mph 90 % 0 in
12:52 44.8 °F 42.3 °F 30 in SW 6 mph 12 mph 91 % 0 in
12:57 44.8 °F 42.3 °F 30 in SSW 4 mph 12 mph 91 % 0 in
13:02 44.6 °F 42.4 °F 30 in SSW 4 mph 12 mph 92 % 0 in
13:12 44.2 °F 42.3 °F 30 in SW 6 mph 11 mph 93 % 0.01 in
13:17 44.2 °F 42.3 °F 30 in SSW 5 mph 9 mph 93 % 0.01 in
13:22 44.1 °F 42.1 °F 30 in SW 7 mph 12 mph 93 % 0.01 in
13:27 43.9 °F 42.3 °F 30 in SSW 7 mph 13 mph 94 % 0.02 in
13:32 43.9 °F 42.3 °F 30 in SW 11 mph 13 mph 94 % 0.02 in
13:37 43.7 °F 42.4 °F 29.9 in SW 7 mph 13 mph 95 % 0.02 in
13:42 43.7 °F 42.4 °F 29.9 in SSW 7 mph 12 mph 95 % 0.02 in
13:47 43.7 °F 42.4 °F 29.9 in SSW 4 mph 12 mph 95 % 0.02 in
13:52 43.7 °F 42.6 °F 29.9 in SW 10 mph 10 mph 96 % 0.03 in
13:57 43.5 °F 42.4 °F 29.9 in SW 9 mph 14 mph 96 % 0.04 in
14:02 43.7 °F 42.6 °F 29.9 in SW 10 mph 14 mph 96 % 0.04 in
14:12 43.7 °F 42.6 °F 29.9 in SW 7 mph 13 mph 96 % 0.04 in
14:17 43.9 °F 42.8 °F 29.9 in SSW 5 mph 12 mph 96 % 0.04 in
14:22 43.9 °F 42.8 °F 29.9 in SSW 6 mph 11 mph 96 % 0.04 in
14:27 43.9 °F 42.8 °F 29.9 in SSW 6 mph 11 mph 96 % 0.04 in
14:32 44.1 °F 43 °F 29.9 in SSW 7 mph 11 mph 96 % 0.04 in
15:23 44.2 °F 43.2 °F 29.8 in South 8 mph 11 mph 96 % 0.03 in
15:32 44.4 °F 43.3 °F 29.8 in SSW 7 mph 13 mph 96 % 0.03 in
15:37 44.4 °F 43.3 °F 29.8 in SW 5 mph 13 mph 96 % 0.04 in
15:42 44.4 °F 43.3 °F 29.8 in SSW 10 mph 14 mph 96 % 0.03 in
15:52 44.4 °F 43.3 °F 29.8 in South 8 mph 14 mph 96 % 0.03 in
15:57 44.4 °F 43.3 °F 29.8 in SSW 8 mph 15 mph 96 % 0.03 in
16:02 44.6 °F 43.5 °F 29.8 in SSW 6 mph 15 mph 96 % 0.03 in
16:12 44.6 °F 43.5 °F 29.8 in SSW 13 mph 17 mph 96 % 0.02 in
16:17 44.6 °F 43.5 °F 29.8 in SW 7 mph 17 mph 96 % 0.02 in
16:22 44.8 °F 43.7 °F 29.8 in SSW 6 mph 17 mph 96 % 0.02 in
16:27 44.6 °F 43.5 °F 29.8 in South 11 mph 16 mph 96 % 0.02 in
16:32 44.8 °F 43.7 °F 29.8 in SSW 11 mph 16 mph 96 % 0.02 in
16:42 44.8 °F 43.5 °F 29.7 in South 13 mph 18 mph 95 % 0.02 in
16:52 44.8 °F 43.7 °F 29.7 in South 12 mph 18 mph 96 % 0.03 in
16:57 44.8 °F 43.7 °F 29.7 in SSW 12 mph 18 mph 96 % 0.03 in
17:02 44.8 °F 43.7 °F 29.7 in South 8 mph 18 mph 96 % 0.02 in
17:12 44.8 °F 43.7 °F 29.7 in South 8 mph 17 mph 96 % 0.03 in
17:17 45 °F 43.7 °F 29.7 in SSW 10 mph 17 mph 95 % 0.03 in
17:22 45 °F 43.7 °F 29.7 in South 10 mph 20 mph 95 % 0.04 in
17:32 45.1 °F 43.9 °F 29.7 in SSW 16 mph 22 mph 95 % 0.04 in
17:37 45.1 °F 43.9 °F 29.7 in SSW 12 mph 23 mph 95 % 0.03 in
17:42 45.1 °F 43.9 °F 29.7 in South 14 mph 23 mph 95 % 0.02 in
17:47 45 °F 43.7 °F 29.7 in SSW 16 mph 21 mph 95 % 0.02 in
17:52 45 °F 43.7 °F 29.7 in SSW 9 mph 21 mph 95 % 0.02 in
17:57 44.8 °F 43.5 °F 29.7 in South 12 mph 21 mph 95 % 0.02 in
18:02 44.8 °F 43.7 °F 29.7 in SSW 11 mph 20 mph 96 % 0.03 in
18:12 45 °F 43.9 °F 29.7 in SSW 14 mph 24 mph 96 % 0.03 in
18:17 45 °F 43.7 °F 29.6 in SSW 11 mph 24 mph 95 % 0.03 in
18:22 45 °F 43.7 °F 29.6 in SSW 19 mph 21 mph 95 % 0.03 in
18:27 45 °F 43.7 °F 29.6 in South 7 mph 22 mph 95 % 0.04 in
18:32 45 °F 43.7 °F 29.6 in SW 14 mph 22 mph 95 % 0.04 in
18:37 45 °F 43.9 °F 29.6 in SSW 17 mph 22 mph 96 % 0.05 in
18:42 45 °F 43.7 °F 29.6 in South 14 mph 21 mph 95 % 0.06 in
18:47 45 °F 43.7 °F 29.6 in SW 11 mph 21 mph 95 % 0.06 in
18:52 45 °F 43.7 °F 29.6 in SW 14 mph 21 mph 95 % 0.05 in
18:57 45.1 °F 43.9 °F 29.6 in SW 8 mph 20 mph 95 % 0.05 in
19:02 45.1 °F 43.9 °F 29.6 in SW 13 mph 19 mph 95 % 0.04 in
19:12 45.3 °F 44.1 °F 29.6 in SW 12 mph 22 mph 95 % 0.03 in
19:17 45.5 °F 44.4 °F 29.6 in SSW 13 mph 22 mph 96 % 0.02 in
19:22 45.9 °F 44.4 °F 29.6 in SSW 18 mph 22 mph 95 % 0.02 in
19:32 46.2 °F 44.8 °F 29.6 in WSW 15 mph 25 mph 95 % 0.02 in
19:42 47.1 °F 45.7 °F 29.6 in WSW 9 mph 25 mph 95 % 0.01 in
19:47 47.7 °F 46 °F 29.6 in SW 22 mph 26 mph 94 % 0.01 in
19:52 48 °F 46 °F 29.6 in SW 22 mph 30 mph 93 % 0.01 in
19:57 48.4 °F 46.4 °F 29.5 in WSW 32 mph 33 mph 93 % 0.01 in
20:02 49.1 °F 46 °F 29.6 in WSW 22 mph 45 mph 89 % 0.02 in
20:07 49.5 °F 44.8 °F 29.6 in West 14 mph 45 mph 84 % 0.02 in
20:17 50 °F 43.2 °F 29.6 in SW 22 mph 44 mph 77 % 0.01 in
20:22 49.6 °F 42.1 °F 29.6 in West 31 mph 44 mph 75 % 0.01 in
20:27 49.1 °F 42.3 °F 29.6 in West 29 mph 44 mph 77 % 0.01 in
20:32 48.6 °F 41.4 °F 29.6 in West 19 mph 44 mph 76 % 0.01 in
20:37 48 °F 41.2 °F 29.6 in WNW 21 mph 44 mph 77 % 0.01 in
20:42 47.8 °F 41 °F 29.6 in West 18 mph 38 mph 77 % 0.01 in
20:52 47.3 °F 40.1 °F 29.6 in West 26 mph 36 mph 76 % 0.01 in
21:02 46.9 °F 40.5 °F 29.6 in WSW 15 mph 35 mph 78 % 0 in
21:07 46.6 °F 40.5 °F 29.6 in WNW 8 mph 37 mph 79 % 0 in
21:17 46.2 °F 40.5 °F 29.6 in West 15 mph 31 mph 80 % 0 in
21:22 46 °F 40.5 °F 29.6 in West 18 mph 31 mph 81 % 0 in
21:32 45.9 °F 39.7 °F 29.6 in WNW 10 mph 34 mph 79 % 0 in
21:37 45.9 °F 39.7 °F 29.6 in WSW 20 mph 36 mph 79 % 0 in
21:42 45.7 °F 39.6 °F 29.6 in West 13 mph 36 mph 79 % 0 in
21:52 45.3 °F 39.2 °F 29.6 in West 18 mph 38 mph 79 % 0 in
21:57 45.3 °F 39.2 °F 29.6 in WSW 16 mph 38 mph 79 % 0 in
22:02 45.3 °F 38.8 °F 29.6 in WNW 12 mph 35 mph 78 % 0 in
22:12 45.1 °F 38.7 °F 29.6 in West 16 mph 31 mph 78 % 0 in
22:17 45 °F 38.8 °F 29.6 in West 19 mph 31 mph 79 % 0 in
22:22 44.8 °F 39 °F 29.6 in South 13 mph 31 mph 80 % 0 in
22:32 44.8 °F 39 °F 29.7 in West 7 mph 32 mph 80 % 0 in
22:37 44.4 °F 38.7 °F 29.7 in WSW 17 mph 32 mph 80 % 0 in
22:42 44.4 °F 37.9 °F 29.7 in West 25 mph 32 mph 78 % 0 in
22:52 44.2 °F 37.6 °F 29.7 in West 27 mph 37 mph 77 % 0 in
22:57 44.1 °F 37.4 °F 29.7 in WNW 13 mph 37 mph 77 % 0 in
23:02 43.9 °F 37.8 °F 29.7 in WSW 10 mph 37 mph 79 % 0 in
23:12 43.5 °F 35.8 °F 29.7 in West 17 mph 27 mph 74 % 0 in
23:17 43.5 °F 35.8 °F 29.7 in West 13 mph 31 mph 74 % 0 in
23:22 43.5 °F 35.8 °F 29.7 in WSW 16 mph 31 mph 74 % 0 in
23:27 43.5 °F 35.4 °F 29.7 in West 13 mph 31 mph 73 % 0 in
23:32 43.3 °F 34.9 °F 29.7 in WSW 11 mph 41 mph 72 % 0 in
23:37 43.3 °F 35.2 °F 29.7 in West 18 mph 41 mph 73 % 0 in
23:47 43 °F 36.7 °F 29.7 in West 9 mph 27 mph 78 % 0 in
23:52 42.8 °F 36.1 °F 29.7 in West 20 mph 26 mph 77 % 0 in
23:57 42.8 °F 35.4 °F 29.7 in WNW 23 mph 32 mph 75 % 0 in
Meteo18
Compliments of Weather Underground - 4 mb

Script developed by  Jim McMurry - jmcmurry@mwt.net Adapted for the template by  Wim van der Kuil - Leuven-Template.eu

You find our weather info also at:

European Weather Network

Weather Underground

Equipment we use:

Weather-station
Davis Vue

Weather-program
Meteohub

Weather-server
Raspberry PI 2 B+

Provider
1 and 1

Davis Vue

Meteohub

Raspberry PI 2 B+

1 and 1